Waarnemingen

Advertentie
Mijn weer
Geilenkirchen, Duitsland (10500): temperatuur & dauwpunt: 17.05.2018 01:00:00 - 23.05.2018 01:00:00 (CEST)Geilenkirchen, Duitsland (10500): windsnelheid: 17.05.2018 01:00:00 - 23.05.2018 01:00:00 (CEST)Geilenkirchen, Duitsland (10500): windrichting: 17.05.2018 01:00:00 - 23.05.2018 01:00:00 (CEST)Geilenkirchen, Duitsland (10500): luchtdruk: 17.05.2018 01:00:00 - 23.05.2018 01:00:00 (CEST)Geilenkirchen, Duitsland (10500): zicht: 17.05.2018 01:00:00 - 23.05.2018 01:00:00 (CEST)
Datum & Tijd tt [°C] td [°C] ff [km/u] ff [kn] dd ppp [hPa] vv [km]
23.05.2018 01:00:00 14,6 13,3 5 3 Z 1016,2 9
23.05.2018 00:00:00 14,8 13,6 4 2 ZO 1015,8 9
22.05.2018 23:00:00 14,4 13,2 2 1 O 1015,6 10
22.05.2018 22:00:00 15,2 14,0 8 4 NNW 1014,8 10
22.05.2018 21:00:00 15,8 14,8 8 4 N 1014,8 10
22.05.2018 20:00:00 16,1 14,9 11 6 WNW 1014,3 10
22.05.2018 19:00:00 16,3 14,3 5 3 W 1013,3 10
22.05.2018 18:00:00 16,0 14,6 8 4 WZW 1013,2 10
22.05.2018 17:00:00 15,6 14,4 15 8 W 1013,6 9
22.05.2018 16:00:00 16,0 13,8 5 3 W 1013,4 8
22.05.2018 15:00:00 19,4 16,0 11 6 Z 1012,9 8
22.05.2018 14:00:00 22,1 14,0 13 7 O 1012,3 10
22.05.2018 13:00:00 23,1 15,8 5 3 N 1012,3 10
22.05.2018 12:00:00 22,1 16,7 5 3 NNW 1012,4 10
22.05.2018 11:00:00 20,0 16,6 8 4 W 1012,4 10
22.05.2018 10:00:00 18,7 15,8 4 2 NW 1012,5 10
22.05.2018 09:00:00 18,5 14,8 2 1 Z 1012,3 10
22.05.2018 08:00:00 15,5 14,4 2 1 ONO 1012,2 9
22.05.2018 07:00:00 14,2 13,7 2 1 ZZO 1011,9 9
22.05.2018 06:00:00 11,9 11,9 4 2 OZO 1011,7 9
22.05.2018 05:00:00 12,5 12,5 8 4 OZO 1011,7 10
22.05.2018 04:00:00 13,9 13,3 4 2 ZZO 1011,7 10
22.05.2018 03:00:00 12,7 2,8 2 1 OZO 1011,9 10
22.05.2018 02:00:00 12,3 2,3 4 2 O 1012,1 10
22.05.2018 01:00:00 13,0 3,0 5 3 O 1012,3 10
22.05.2018 00:00:00 14,3 4,2 2 1 ZZW 1012,5 10
21.05.2018 23:00:00 15,2 5,0 5 3 - 1012,2 10
21.05.2018 22:00:00 14,8 4,7 18 10 NNW 1012,0 5
21.05.2018 21:00:00 16,5 6,2 15 8 ZZW 1012,9 6
21.05.2018 20:00:00 20,5 9,9 4 2 ZO 1011,7 10
21.05.2018 19:00:00 - - - - - - -
21.05.2018 18:00:00 - - - - - - -
21.05.2018 17:00:00 - - - - - - -
21.05.2018 16:00:00 - - - - - - -
21.05.2018 15:00:00 - - - - - - -
21.05.2018 14:00:00 - - - - - - -
21.05.2018 13:00:00 - - - - - - -
21.05.2018 12:00:00 - - - - - - -
21.05.2018 11:00:00 - - - - - - -
21.05.2018 10:00:00 - - - - - - -
21.05.2018 09:00:00 - - - - - - -
21.05.2018 08:00:00 - - - - - - -
21.05.2018 07:00:00 - - - - - - -
21.05.2018 06:00:00 - - - - - - -
21.05.2018 05:00:00 - - - - - - -
21.05.2018 04:00:00 - - - - - - -
21.05.2018 03:00:00 - - - - - - -
21.05.2018 02:00:00 - - - - - - -
21.05.2018 01:00:00 - - - - - - -
21.05.2018 00:00:00 - - - - - - -
20.05.2018 23:00:00 - - - - - - -
20.05.2018 22:00:00 - - - - - - -
20.05.2018 21:00:00 - - - - - - -
20.05.2018 20:00:00 - - - - - - -
20.05.2018 19:00:00 - - - - - - -
20.05.2018 18:00:00 - - - - - - -
20.05.2018 17:00:00 - - - - - - -
20.05.2018 16:00:00 - - - - - - -
20.05.2018 15:00:00 - - - - - - -
20.05.2018 14:00:00 - - - - - - -
20.05.2018 13:00:00 - - - - - - -
20.05.2018 12:00:00 - - - - - - -
20.05.2018 11:00:00 - - - - - - -
20.05.2018 10:00:00 - - - - - - -
20.05.2018 09:00:00 - - - - - - -
20.05.2018 08:00:00 - - - - - - -
20.05.2018 07:00:00 - - - - - - -
20.05.2018 06:00:00 - - - - - - -
20.05.2018 05:00:00 - - - - - - -
20.05.2018 04:00:00 - - - - - - -
20.05.2018 03:00:00 - - - - - - -
20.05.2018 02:00:00 - - - - - - -
20.05.2018 01:00:00 - - - - - - -
20.05.2018 00:00:00 - - - - - - -
19.05.2018 23:00:00 - - - - - - -
19.05.2018 22:00:00 - - - - - - -
19.05.2018 21:00:00 - - - - - - -
19.05.2018 20:00:00 - - - - - - -
19.05.2018 19:00:00 - - - - - - -
19.05.2018 18:00:00 - - - - - - -
19.05.2018 17:00:00 - - - - - - -
19.05.2018 16:00:00 - - - - - - -
19.05.2018 15:00:00 - - - - - - -
19.05.2018 14:00:00 - - - - - - -
19.05.2018 13:00:00 - - - - - - -
19.05.2018 12:00:00 - - - - - - -
19.05.2018 11:00:00 - - - - - - -
19.05.2018 10:00:00 - - - - - - -
19.05.2018 09:00:00 - - - - - - -
19.05.2018 08:00:00 - - - - - - -
19.05.2018 07:00:00 - - - - - - -
19.05.2018 06:00:00 - - - - - - -
19.05.2018 05:00:00 - - - - - - -
19.05.2018 04:00:00 - - - - - - -
19.05.2018 03:00:00 - - - - - - -
19.05.2018 02:00:00 - - - - - - -
19.05.2018 01:00:00 - - - - - - -
19.05.2018 00:00:00 - - - - - - -
18.05.2018 23:00:00 - - - - - - -
18.05.2018 22:00:00 12,0 6,0 9 5 NNW - 10
18.05.2018 21:00:00 13,9 6,3 11 6 NW 1021,8 10
18.05.2018 20:00:00 15,3 6,2 9 5 N 1021,6 10
18.05.2018 19:00:00 15,9 5,4 9 5 NNW 1021,6 10
18.05.2018 18:00:00 16,7 4,3 15 8 NW 1021,8 10
18.05.2018 17:00:00 15,9 5,2 11 6 NNW 1022,0 10
18.05.2018 16:00:00 15,9 5,7 15 8 NW 1022,4 10
18.05.2018 15:00:00 14,7 5,3 11 6 WNW 1022,6 10
18.05.2018 14:00:00 14,1 5,7 11 6 NNW 1023,2 10
18.05.2018 13:00:00 12,8 5,6 13 7 WNW 1023,8 10
18.05.2018 12:00:00 11,7 5,7 13 7 WNW 1023,9 10
18.05.2018 11:00:00 11,1 4,7 13 7 NNW 1024,0 10
18.05.2018 10:00:00 9,3 4,1 9 5 N 1024,1 10
18.05.2018 09:00:00 8,7 4,3 15 8 NNW 1023,9 10
18.05.2018 08:00:00 8,5 4,2 13 7 NNW 1023,8 10
18.05.2018 07:00:00 7,7 3,8 8 4 NNW 1023,5 10
18.05.2018 06:00:00 7,6 3,6 8 4 NNW 1023,3 10
18.05.2018 05:00:00 7,8 4,5 9 5 NNW 1023,2 10
18.05.2018 04:00:00 7,9 4,5 15 8 N 1023,2 10
18.05.2018 03:00:00 6,3 4,5 8 4 WNW 1023,3 10
18.05.2018 02:00:00 6,5 4,2 8 4 W 1023,3 10
18.05.2018 01:00:00 7,2 4,4 8 4 WNW 1023,5 10
18.05.2018 00:00:00 8,3 4,8 9 5 NNW 1023,6 10
17.05.2018 23:00:00 9,6 4,9 11 6 NNW 1023,4 10
17.05.2018 22:00:00 10,8 5,1 11 6 N 1022,9 10
17.05.2018 21:00:00 13,6 5,1 11 6 N 1022,0 10
17.05.2018 20:00:00 15,5 5,5 16 9 N 1021,6 10
17.05.2018 19:00:00 16,8 4,9 22 12 NNW 1021,3 10
17.05.2018 18:00:00 17,6 5,4 16 9 NNW 1021,3 10
17.05.2018 17:00:00 17,8 5,5 22 12 NNW 1021,6 10
17.05.2018 16:00:00 17,3 6,0 18 10 NW 1021,7 10
17.05.2018 15:00:00 16,9 5,5 16 9 NW 1022,0 10
17.05.2018 14:00:00 15,7 5,5 18 10 NW 1022,3 10
17.05.2018 13:00:00 14,9 6,3 16 9 NNW 1022,4 10
17.05.2018 12:00:00 13,5 5,9 13 7 NW 1022,8 10
17.05.2018 11:00:00 12,2 6,3 15 8 WNW 1022,9 10
17.05.2018 10:00:00 11,2 7,8 14 8 NNW 1023,1 15
17.05.2018 09:00:00 9,5 6,5 11 6 NNW 1023,0 10
17.05.2018 08:00:00 9,2 6,7 8 4 NW 1022,8 10
17.05.2018 07:00:00 9,6 6,8 8 4 NW 1022,7 10
17.05.2018 06:00:00 8,7 7,0 11 6 NW 1022,6 10
17.05.2018 05:00:00 8,8 7,4 9 5 NNW 1022,4 10
17.05.2018 04:00:00 8,9 7,2 11 6 NNW 1022,1 10
17.05.2018 03:00:00 10,6 8,6 13 7 NNW 1021,7 10
17.05.2018 02:00:00 11,4 9,1 13 7 NNW 1021,4 10
17.05.2018 01:00:00 12,2 10,3 15 8 NNW 1021,2 10

tt = temperatuur
td = dauwpunt
ff = windsnelheid
dd = windrichting
ppp = luchtdruk
vv = zicht

Weerstations in de omgeving